Content
SEND FEEDBACK

Daily
Averages
Monthly
Summary
United States of America

GLENDIVE, MONTANA


Home > North America > United States > Montana
Elevation: 2128 feet     Latitude: 47 07N     Longitude: 104 41W

WEATHER
 
SELECT A DAY
Number of Records: 74,728;   Date Range: 1/1/95 - 8/22/14
 
SHARE

PRINT THIS DATA

[ ← Previous Day ]
WEATHER ALMANAC - FEBRUARY 13, 2013
[ Next Day → ]
[ °C ]   °F
Weather ElementAverageHighLow
Temperature37 °F42.8 °F (10:15 am)30.2 °F (9:55 pm)
Dewpoint26.5 °F30.2 °F (5:55 am)19.4 °F (8:35 pm)
Humidity66.3 %81 % (6:15 am)56 % (8:35 pm)
Barometer29.75 in29.90 in (8:55 pm)29.64 in (4:55 am)
Wind Speed21.1 mph28.8 mph (1:15 pm)
Wind Gust36.8 mph (12:55 pm)
Weather ElementAverage
Visibility10 mi
Wind DirectionWNW (281.1 °)

Weather ElementTotal
Precipitation---
Heating Degree Days28.5 (Base 65)
Averaged from 63 records on February 13, 2013
WEATHER CONDITIONS BREAKOUT
WIND DIRECTION BREAKOUT
WEATHER BY HOUR - FEBRUARY 13, 2013
[ °C ]   °F
Local TimeTemperatureDewpointHumidityBarometerVisibilityWind DirectionWind SpeedGust SpeedPrecipitationEventsConditions
12:35 AM33.8 °F24.8 °F70 %29.74 in10.0 miSW (230°)10.4 mphOvercast
12:55 AM33.8 °F24.8 °F70 %29.73 in10.0 miSW (230°)10.4 mphScattered Clouds
1:15 AM33.8 °F26.6 °F75 %29.72 in10.0 miWSW (240°)11.5 mph19.6 mphClear
1:55 AM33.8 °F26.6 °F75 %29.71 in10.0 miWSW (240°)10.4 mphMostly Cloudy
2:35 AM33.8 °F24.8 °F70 %29.70 in10.0 miWSW (240°)12.7 mphScattered Clouds
2:55 AM33.8 °F24.8 °F70 %29.69 in10.0 miWSW (250°)11.5 mphScattered Clouds
3:15 AM35.6 °F24.8 °F65 %29.68 in10.0 miWSW (250°)10.4 mphOvercast
3:35 AM35.6 °F26.6 °F70 %29.67 in10.0 miWSW (250°)15.0 mphOvercast
3:55 AM35.6 °F26.6 °F70 %29.66 in10.0 miWSW (250°)12.7 mphOvercast
4:15 AM35.6 °F26.6 °F70 %29.66 in10.0 miWSW (250°)10.4 mphOvercast
4:35 AM39.2 °F26.6 °F61 %29.65 in10.0 miWSW (250°)13.8 mphMostly Cloudy
4:55 AM37.4 °F26.6 °F65 %29.64 in10.0 miWest (270°)17.3 mphOvercast
5:15 AM39.2 °F26.6 °F61 %29.65 in10.0 miWest (270°)19.6 mph27.6 mphOvercast
5:35 AM37.4 °F28.4 °F70 %29.65 in10.0 miWest (280°)21.9 mph32.2 mphOvercast
5:55 AM37.4 °F30.2 °F75 %29.65 in10.0 miWest (280°)23.0 mph31.1 mphOvercast
6:15 AM35.6 °F30.2 °F81 %29.65 in10.0 miWest (280°)19.6 mph27.6 mphScattered Clouds
6:35 AM35.6 °F30.2 °F81 %29.65 in10.0 miWest (280°)23.0 mph29.9 mphPartly Cloudy
6:55 AM35.6 °F30.2 °F81 %29.65 in10.0 miWest (280°)19.6 mph28.8 mphClear
7:15 AM35.6 °F30.2 °F81 %29.65 in10.0 miWest (280°)20.7 mphClear
7:35 AM37.4 °F30.2 °F75 %29.66 in10.0 miWest (280°)23.0 mph29.9 mphPartly Cloudy
7:55 AM37.4 °F28.4 °F70 %29.66 in10.0 miWest (280°)26.5 mph32.2 mphClear
8:15 AM39.2 °F28.4 °F65 %29.67 in10.0 miWest (280°)25.3 mph29.9 mphScattered Clouds
8:35 AM39.2 °F28.4 °F65 %29.68 in10.0 miWest (280°)20.7 mph27.6 mphMostly Cloudy
8:55 AM39.2 °F30.2 °F70 %29.68 in10.0 miWest (280°)18.4 mph27.6 mphMostly Cloudy
9:15 AM39.2 °F30.2 °F70 %29.68 in10.0 miWest (280°)18.4 mph26.5 mphPartly Cloudy
9:35 AM41.0 °F30.2 °F65 %29.69 in10.0 miWest (270°)24.2 mphClear
9:55 AM41.0 °F28.4 °F61 %29.70 in10.0 miWest (280°)24.2 mph29.9 mphPartly Cloudy
10:15 AM42.8 °F28.4 °F57 %29.70 in10.0 miWest (280°)26.5 mph32.2 mphClear
10:35 AM41.0 °F28.4 °F61 %29.70 in10.0 miWest (280°)23.0 mph31.1 mphClear
10:55 AM42.8 °F28.4 °F57 %29.70 in10.0 miWNW (290°)20.7 mph33.4 mphClear
11:15 AM42.8 °F28.4 °F57 %29.71 in10.0 miWNW (290°)23.0 mph33.4 mphPartly Cloudy
11:35 AM42.8 °F28.4 °F57 %29.71 in10.0 miWNW (290°)25.3 mph29.9 mphMostly Cloudy
11:55 AM42.8 °F28.4 °F57 %29.71 in10.0 miWNW (290°)25.3 mph31.1 mphPartly Cloudy
12:15 PM42.8 °F30.2 °F61 %29.72 in10.0 miWNW (290°)24.2 mph34.5 mphClear
12:55 PM42.8 °F28.4 °F57 %29.73 in10.0 miWNW (300°)23.0 mph36.8 mphClear
1:15 PM42.8 °F30.2 °F61 %29.73 in10.0 miWNW (290°)28.8 mph35.7 mphClear
1:35 PM42.8 °F28.4 °F57 %29.74 in10.0 miWNW (300°)25.3 mph34.5 mphClear
1:55 PM42.8 °F30.2 °F61 %29.74 in10.0 miWNW (300°)26.5 mph29.9 mphClear
2:15 PM42.8 °F28.4 °F57 %29.74 in10.0 miWNW (300°)26.5 mph34.5 mphClear
2:55 PM41.0 °F28.4 °F61 %29.76 in10.0 miWNW (300°)24.2 mph33.4 mphClear
3:15 PM41.0 °F28.4 °F61 %29.77 in10.0 miWNW (300°)23.0 mph33.4 mphScattered Clouds
3:35 PM39.2 °F28.4 °F65 %29.77 in10.0 miWNW (300°)24.2 mph32.2 mphScattered Clouds
3:55 PM39.2 °F28.4 °F65 %29.78 in10.0 miWNW (300°)26.5 mph32.2 mphClear
4:35 PM37.4 °F26.6 °F65 %29.81 in10.0 miWNW (300°)26.5 mph35.7 mphMostly Cloudy
4:55 PM37.4 °F26.6 °F65 %29.82 in10.0 miWNW (300°)23.0 mph31.1 mphPartly Cloudy
5:15 PM35.6 °F26.6 °F70 %29.82 in10.0 miWNW (300°)23.0 mph32.2 mphClear
5:35 PM35.6 °F26.6 °F70 %29.83 in10.0 miWNW (300°)20.7 mph31.1 mphClear
5:55 PM35.6 °F26.6 °F70 %29.84 in10.0 miWNW (300°)18.4 mph29.9 mphClear
6:15 PM35.6 °F26.6 °F70 %29.85 in10.0 miWNW (300°)17.3 mph29.9 mphClear
6:35 PM33.8 °F26.6 °F75 %29.85 in10.0 miWNW (290°)19.6 mph27.6 mphClear
6:55 PM33.8 °F26.6 °F75 %29.86 in10.0 miWest (280°)19.6 mphClear
7:15 PM33.8 °F26.6 °F75 %29.87 in10.0 miWest (280°)20.7 mph25.3 mphClear
7:35 PM33.8 °F24.8 °F70 %29.87 in10.0 miWest (280°)23.0 mph27.6 mphClear
7:55 PM33.8 °F21.2 °F60 %29.88 in10.0 miWNW (290°)25.3 mph33.4 mphScattered Clouds
8:15 PM33.8 °F21.2 °F60 %29.89 in10.0 miWNW (290°)21.9 mph26.5 mphMostly Cloudy
8:35 PM33.8 °F19.4 °F56 %29.89 in10.0 miWNW (300°)21.9 mph33.4 mphScattered Clouds
8:55 PM32.0 °F19.4 °F60 %29.90 in10.0 miWNW (300°)17.3 mph23.0 mphOvercast
9:15 PM32.0 °F19.4 °F60 %29.89 in10.0 miWNW (300°)27.6 mph34.5 mphMostly Cloudy
9:55 PM30.2 °F19.4 °F64 %29.90 in10.0 miWNW (300°)21.9 mph29.9 mphClear
10:15 PM30.2 °F19.4 °F64 %29.90 in10.0 miWNW (300°)28.8 mph36.8 mphClear
10:35 PM30.2 °F19.4 °F64 %29.90 in10.0 miWNW (290°)25.3 mph33.4 mphClear
10:55 PM30.2 °F19.4 °F64 %29.90 in10.0 miWNW (290°)26.5 mph34.5 mphClear
11:15 PM30.2 °F19.4 °F64 %29.90 in10.0 miWNW (290°)27.6 mph36.8 mphPartly Cloudy
Hourly data recorded from KGDV, located miles away from Glendive, Montana







STORIES FROM OUR PARTNERS